Location: Seattle
(47.6064°N, 122.3308°W)
Time: 19:24:31
(UTC-07:00)

AO-7 - Pass Details

Date: 20 March 2023
Orbit: 1439 x 1459 km, 101.9° (Epoch: 07 June)

Event Time Altitude Azimuth Distance (km) Brightness Sun altitude
Rises 05:53:20 0° 20° (NNE) 4,573 ? -14.0°
Reaches altitude 10° 05:56:11 10° 23° (NNE) 3,589 ? -13.5°
Maximum altitude 06:04:31 65° 105° (ESE) 1,575 ? -12.2°
Drops below altitude 10° 06:12:45 10° 187° (S) 3,555 ? -10.8°
Sets 06:15:32 0° 190° (S) 4,527 ? -10.4°
